GSAT0103 (GALILEO-FM3)

Last updated on Oct. 24, 2020, 5:54 a.m. UTC

1 38857U 12055A   20296.86960861  .00000019  00000-0  00000+0 0  9996
2 38857  54.9956 158.2747 0001362 259.5950 100.4769  1.70473830 49982
UTC
Height (km)
Latitude
Longitude
Inclination
Orbital Period
UTC large
Height (km)
Speed (km/s)
/
Latitude / Longitude
Inclination (degrees)
Orbital Period (minutes)
Azimuth
Elevation
Range (km)
Doppler Factor
iOS Compass Heading
iOS Angle

Next 30 passes for location: Hong Kong

Rise time Rise Azimuth (degrees) Set time Set Azimuth (degrees) Duration Max altitude (degrees)

No matching passes for this satellites